Terminal Aerodrome Forecast
Issued by NWS Charleston, WV

Current Version | Previous Version | Graphics & Text | Print | Product List | Glossary On
Versions: 1 2 3 4 5 6 7 8 9 10 11 12 13 14 15 16 17 18 19 20 21 22 23 24 25 26 27 28
000
FTUS41 KRLX 240800 AAA
TAFBKW
TAF AMD
KBKW 240828Z 2408/2506 33004KT 6SM BR BKN025
      TEMPO 2408/2412 5SM BR SCT001 BKN012
     FM241300 VRB03KT P6SM BKN250=

USA.gov is the U.S. government's official web portal to all federal, state and local government web resources and services.